Home > Weather > Germany > Oberhausen > Past weeks

Flag for Germany Weather past 2 weeks in Oberhausen, North Rhine-Westphalia, Germany

52 °F

Passing clouds.

Feels Like: 48 °F
Forecast: 45 / 50 °F
Wind: 10 mph from Southwest

Location: Duesseldorf

Current Time: Dec 2, 2015 at 6:24:03 AM

Latest Report: Dec 2, 2015 at 5:20 AM

Visibility: N/A

Pressure: 30.30 "Hg

Humidity: 82%

Dew point: 46 °F

Location of OberhausenLocation

Historic Weather in Oberhausen — Graph


Oberhausen temperature yesterday

Maximum temperature yesterday: 54 °F (at 6:20 PM)
Minimum temperature yesterday: 45 °F (at 7:20 AM)
Average temperature yesterday: 50 °F

Past Weeks' High & Low Weather Summary

High61 °F (Nov 17, 11:20 AM)100% (Nov 17, 6:50 AM)30.33 "Hg (Nov 17, 6:50 AM)
Low32 °F (Nov 22, 7:20 AM)59% (Nov 18, 3:20 AM)29.39 "Hg (Nov 21, 7:20 AM)
Average45 °F84%29.88 "Hg
* Reported Nov 17 4:20 AM — Dec 2 4:20 AM, Oberhausen, Weather by CustomWeather, © 2015

Note: Actual official high and low records may vary slightly from our data, if they occured in-between our weather recording intervals... More about our weather records


Oberhausen weather history for previous 24 hours

Time TempWeatherWind HumidityBarometerVisibility
4:20 AM
Wed, Dec 2
52 °FPassing clouds.10 mph82%30.30 "HgN/A
3:20 AM52 °FPassing clouds.12 mph82%30.30 "HgN/A
2:50 AM54 °FPassing clouds.10 mph72%30.33 "HgN/A
2:20 AM52 °FPassing clouds.13 mph82%30.30 "HgN/A
1:50 AM52 °FPassing clouds.16 mph82%30.30 "HgN/A
1:20 AM52 °FPassing clouds.13 mph82%30.30 "HgN/A
12:20 AM52 °FPassing clouds.10 mph88%30.30 "HgN/A
11:50 PM
Tue, Dec 1
54 °FPassing clouds.12 mph82%30.30 "HgN/A
11:20 PM52 °FPassing clouds.12 mph88%30.30 "HgN/A
10:50 PM52 °FPassing clouds.12 mph94%30.30 "HgN/A
10:20 PM52 °FPassing clouds.13 mph88%30.30 "HgN/A
9:50 PM54 °FPassing clouds.14 mph88%30.30 "HgN/A
9:20 PM54 °FPartly cloudy.13 mph88%30.27 "HgN/A
8:50 PM54 °FPartly cloudy.13 mph88%30.27 "HgN/A
8:20 PM54 °FPartly cloudy.15 mph88%30.27 "HgN/A
7:50 PM54 °FPartly cloudy.13 mph94%30.27 "HgN/A
7:20 PM54 °FPassing clouds.13 mph94%30.27 "HgN/A
6:50 PM54 °FPassing clouds.14 mph94%30.27 "Hg4 mi
6:20 PM54 °FPartly cloudy.13 mph94%30.27 "Hg4 mi
5:50 PM52 °FPassing clouds.9 mph100%30.24 "Hg4 mi
5:20 PM50 °FPartly cloudy.8 mph100%30.24 "Hg4 mi
4:50 PM50 °FDrizzle. Fog.7 mph100%30.24 "Hg1 mi
4:20 PM50 °FDrizzle. Fog.6 mph94%30.24 "Hg2 mi
3:50 PM48 °FDrizzle. Fog.7 mph100%30.24 "Hg3 mi
3:20 PM48 °FDrizzle. Fog.6 mph100%30.24 "Hg1 mi
2:50 PM48 °FDrizzle. Fog.6 mph94%30.24 "Hg1 mi
2:20 PM46 °FDrizzle. Fog.6 mph100%30.24 "Hg2 mi
1:50 PM46 °FDrizzle. Fog.6 mph100%30.24 "Hg2 mi
1:20 PM46 °FDrizzle. Fog.6 mph100%30.24 "Hg2 mi
12:50 PM46 °FDrizzle. Fog.6 mph100%30.24 "Hg2 mi
12:20 PM46 °FDrizzle. Fog.6 mph100%30.24 "Hg1 mi
11:50 AM46 °FDrizzle. Partly sunny.5 mph93%30.21 "Hg3 mi
11:20 AM46 °FDrizzle. Partly sunny.6 mph93%30.24 "Hg4 mi
10:50 AM46 °FDrizzle. Partly sunny.7 mph93%30.24 "Hg3 mi
10:20 AM46 °FDrizzle. Broken clouds.5 mph93%30.21 "Hg3 mi
9:50 AM46 °FDrizzle. Fog.7 mph93%30.21 "Hg3 mi
7:50 AM45 °FLight rain. Mostly cloudy.6 mph100%30.18 "Hg5 mi
7:20 AM45 °FLight rain. Overcast.No wind100%30.15 "HgN/A
6:50 AM46 °FLight rain. Overcast.No wind93%30.15 "HgN/A
6:20 AM46 °FLight rain. Passing clouds.3 mph87%30.15 "HgN/A
Weather by CustomWeather, © 2015

See weather overviewHow to use our weather pages